Location: Rowland
(34.5359°N, 79.2929°W)
Time: 21:52:07
(UTC+00:00)

A-11 Canister half - Pass Details

Date: 06 October 2022
Orbit: 1516 x 1684 km, 47.2° (Epoch: 28 November)

Event Time Altitude Azimuth Distance (km) Brightness Sun altitude
Rises 00:17:28 0° 228° (SW) 4,881 12.3 -17.7°
Reaches altitude 10° 00:20:39 10° 227° (SW) 3,877 11.6 -18.3°
Maximum altitude 00:30:33 82° 142° (SE) 1,617 9.0 -20.3°
Enters shadow 00:37:58 19° 56° (ENE) 3,089 10.2 -21.8°
